{"data":{"norad_id":59878,"intl_designator":"2024-098W","name":"STARLINK-31943","alt_names":[],"object_type":"PAYLOAD","status":"ACTIVE","operator":null,"country":"US","launch_date":"2024-05-24","launch_site_code":"AFETR","launch_vehicle":null,"mission":null,"orbit_class":"UNKNOWN","rcs_meters":null,"size_class":null,"mass_kg":null,"dimensions":null,"purposes":["comms"],"wikipedia_slug":null,"has_3d_model":false,"image_url":null,"decayed_at":null,"tle_current":{"epoch":"2026-05-25T04:17:02.690304Z","epoch_age_seconds":66577,"freshness":"FRESH","line1":"1 59878U 24098W   26145.17850336  .00070747  00000+0  16869-2 0  9997","line2":"2 59878  42.9971 205.1947 0012834  42.1334 318.0507 15.40590363112907","mean_motion":15.40590363,"eccentricity":0.0012834,"inclination_deg":42.9971,"raan_deg":205.1947,"arg_perigee_deg":42.1334,"mean_anomaly_deg":318.0507,"bstar":0.0016869,"rev_number":11290,"period_min":93.470661285709,"perigee_km":435.60981313738,"apogee_km":453.12181335843,"semimajor_km":6822.5028132479,"source":"CELESTRAK","updated_at":"2026-05-25T13:38:19.094643Z"}}}